Regional Weather Roundup
Issued by NWS Northern Indiana

Home | Current Version | Previous Version | Text Only | Print | Product List | Glossary Off
Versions: 1 2 3 4 5 6 7 8 9 10 11 12 13 14 15 16 17 18 19 20 21 22 23 24 25 26 27 28 29 30 31 32 33 34 35 36 37 38 39 40 41 42 43 44 45 46 47 48 49 50

000
ASUS43 KIWX 290100
RWRIWX

KIWX WEATHER ROUNDUP
NATIONAL WEATHER SERVICE NORTHERN INDIANA
900 PM EDT TUE JUL 28 2015

NOTE: "FAIR" INDICATES FEW OR NO CLOUDS BELOW 12,000 FEET WITH NO
SIGNIFICANT WEATHER AND/OR OBSTRUCTIONS TO VISIBILITY.

* THESE STATIONS ARE NOT UNDER NWS QUALITY CONTROL. THEY ALSO MAY NOT
  REPORT WEATHER SUCH AS PRECIPITATION OR FOG.

INZ001>027-290200-
NORTHERN INDIANA

CITY           SKY/WX    TMP DP  RH WIND       PRES   REMARKS
GARY*          MOCLDY    86  72  62 S7        29.92
KNOX*          CLEAR     81  72  74 SE5       29.92F
SOUTH BEND     PTCLDY    85  70  60 S7        29.94F
ELKHART*       CLEAR     81  68  65 CALM      29.95R
GOSHEN         CLEAR     81  72  74 CALM      29.95R
MONTICELLO*    CLEAR     82  77  84 CALM      29.92F
WARSAW*        CLEAR     79  72  78 CALM      29.95R
ANGOLA*        CLEAR     81  66  61 CALM      29.97R
FORT WAYNE     PTCLDY    80  73  79 SW3       29.96R

$$
INZ028>050-290200-
CENTRAL INDIANA

CITY           SKY/WX    TMP DP  RH WIND       PRES   REMARKS
LAFAYETTE      PTCLDY    80  76  87 CALM      29.92R
KOKOMO*        CLEAR     84  73  70 CALM      29.95R
MUNCIE*        CLEAR     80  73  79 CALM      29.95R
INDIANAPOLIS   MOCLDY    83  72  69 S6        29.94R

$$
MIZ043>046-050>051-056>058-064>065-071>073-077>080-290200-
SOUTHWEST LOWER MICHIGAN

CITY           SKY/WX    TMP DP  RH WIND       PRES   REMARKS
BATTLE CREEK   PTCLDY    83  64  52 SE3       29.98R
BENTON HARBOR  PTCLDY    82  70  66 E3        29.93S
COLDWATER*     CLEAR     78  65  65 CALM      29.97R
HILLSDALE*     CLEAR     76  67  71 E7        29.98S HAZE
HOLLAND        PTCLDY    79  68  69 SE6       29.94S
GRAND RAPIDS   MOCLDY    82  66  58 S3        29.96R
KALAMAZOO      PTCLDY    83  65  54 CALM      29.96R
STURGIS*       CLEAR     77  72  83 CALM      29.96R
THREE RIVERS*  FAIR      80  69  67 CALM      29.96S

$$
OHZ001>008-015>018-024>025-290200-
NORTHWEST OHIO

CITY           SKY/WX    TMP DP  RH WIND       PRES   REMARKS
DEFIANCE       PTCLDY    82  66  58 E5        29.95R
FINDLAY        MOCLDY    82  65  56 E10       29.95S
TOLEDO EXPRESS PTCLDY    76  64  66 E3        29.96R
TOLEDO METCALF PTCLDY    79  65  62 E5        29.96F
LIMA           PTCLDY    77  70  79 E5        29.95F

$$
AND FOR LAKE MICHIGAN COASTAL AND OPEN LAKE BUOY OBSERVATIONS

STATION/POSITION TEMP    WIND        PRES    VSBY  WAVE
                 AIR SEA DIR/SP/G                  HT/PER
                 (F)     (DEG/KT/KT) (MB)    (MI)  (FT/S)
CALUMET HARBOR    87     210/  5/  7   N/A
MICHIGAN CITY     86     140/  7/  9   N/A
BURNS HARBOR      87     170/  5/ 10 1013.5R
SAINT JOSEPH      90      CALM  /  4 1013.9R
4 MI NW BRIDGMAN  81 76  220/  6/  6   N/A           1
MICHIGAN CITY     82 76  180/  6/  6   N/A           1

$$
&&



USA.gov is the U.S. government's official web portal to all federal, state and local government web resources and services.